User: anonymous   Login
Location: Forst
(46.9333°N, 15.4333°E)
Time: 08:35:32
(UTC+00:00)
Language:

NOAA 11 - Orbit

View from above orbital plane
View from above orbital plane
View from above satellite
View from above satellite

Ground track
Ground track

The orbit data is extracted from the following two-line orbital elements,

1 19531U 88089A   21065.75153738 -.00000011  00000-0  14932-4 0  9991
2 19531  98.4065  76.2530 0012369  87.8400 272.4191 14.15268903674668
Epoch (UTC): 06 March 2021 18:02:12
Eccentricity: 0.0012369
inclination: 98.4065°
perigee height: 832 km
apogee height: 850 km
right ascension of ascending node: 76.2530°
argument of perigee: 87.8400°
revolutions per day: 14.15268903
mean anomaly at epoch: 272.4191°
orbit number at epoch: 67466

The dashed part of the orbit path shows where the satellite is in the earth's shadow,  

DLR